HVN351 RJFF-VVTS

Flight info

Callsign HVN351
Flight time 4h 57m
Altitude 30000
Route YAMGA HKC Y45 BOMAP Y62 YURIX Y26 KAORU/N0466F320 Y26 IGURU G581 TULTO Q13 KABAM N892 MIGUG/K0852F320 N892 MESOX Q15 CRA W15 VETOM VETOM5G
Aircraft A321/M-SDE3FGHIRWY/LB1

Departure

Time 2026-05-08 19:29
Airport Fukuoka Airport (RJFF)

Arrival

Time 2026-05-09 00:27
Airport Tan Son Nhat International Airport (VVTS)
Time Latitude Longitude Altitude Speed Heading
2026-05-08 18:49 33.58849 130.44349 27 ft 0 kts 233°
2026-05-08 19:21 33.58852 130.44355 26 ft 4 kts 231°
2026-05-08 19:21 33.58871 130.44377 32 ft 4 kts 229°
2026-05-08 19:21 33.58884 130.44396 30 ft 4 kts 258°
2026-05-08 19:22 33.58881 130.44423 31 ft 4 kts 290°
2026-05-08 19:22 33.58868 130.44449 26 ft 4 kts 328°
2026-05-08 19:22 33.58843 130.44458 26 ft 4 kts 359°
2026-05-08 19:22 33.58819 130.44460 27 ft 2 kts 334°
2026-05-08 19:23 33.58818 130.44461 27 ft 0 kts 333°
2026-05-08 19:25 33.58835 130.44451 27 ft 6 kts 339°
2026-05-08 19:25 33.58885 130.44450 26 ft 9 kts 19°
2026-05-08 19:25 33.58924 130.44506 29 ft 10 kts 62°
2026-05-08 19:26 33.58975 130.44562 28 ft 12 kts 12°
2026-05-08 19:26 33.59059 130.44521 29 ft 13 kts 333°
2026-05-08 19:26 33.59140 130.44464 25 ft 14 kts 330°
2026-05-08 19:26 33.59223 130.44408 25 ft 14 kts 330°
2026-05-08 19:27 33.59308 130.44350 24 ft 14 kts 330°
2026-05-08 19:27 33.59394 130.44291 23 ft 14 kts 330°
2026-05-08 19:27 33.59498 130.44257 22 ft 17 kts 351°
2026-05-08 19:27 33.59612 130.44238 21 ft 15 kts
2026-05-08 19:28 33.59677 130.44316 22 ft 11 kts 79°
2026-05-08 19:28 33.59633 130.44362 22 ft 9 kts 151°
2026-05-08 19:28 33.59450 130.44485 24 ft 65 kts 150°
2026-05-08 19:28 33.58856 130.44890 29 ft 128 kts 150°
2026-05-08 19:29 33.57923 130.45526 44 ft 179 kts 150°
2026-05-08 19:29 33.56796 130.46272 677 ft 183 kts 151°
2026-05-08 19:29 33.55664 130.46976 1467 ft 185 kts 150°
2026-05-08 19:29 33.54510 130.47691 1983 ft 193 kts 151°
2026-05-08 19:30 33.53251 130.48478 2065 ft 213 kts 150°
2026-05-08 19:30 33.51879 130.49341 2174 ft 232 kts 151°
2026-05-08 19:30 33.50403 130.50267 2289 ft 254 kts 151°
2026-05-08 19:30 33.48794 130.51273 2669 ft 265 kts 151°
2026-05-08 19:31 33.47136 130.52303 3210 ft 271 kts 151°
2026-05-08 19:31 33.45444 130.53354 3758 ft 275 kts 151°
2026-05-08 19:31 33.43732 130.54418 4339 ft 279 kts 152°
2026-05-08 19:31 33.42002 130.55491 4908 ft 281 kts 152°
2026-05-08 19:32 33.40258 130.56575 5456 ft 284 kts 152°
2026-05-08 19:32 33.38496 130.57668 6006 ft 287 kts 153°
2026-05-08 19:32 33.36710 130.58774 6536 ft 291 kts 153°
2026-05-08 19:32 33.34902 130.59894 7040 ft 295 kts 153°
2026-05-08 19:33 33.33068 130.61031 7490 ft 299 kts 153°
2026-05-08 19:33 33.31204 130.62183 7984 ft 303 kts 154°
2026-05-08 19:33 33.29344 130.63335 8490 ft 307 kts 154°
2026-05-08 19:33 33.27441 130.64516 8964 ft 310 kts 154°
2026-05-08 19:34 33.25508 130.65715 9414 ft 315 kts 154°
2026-05-08 19:34 33.23550 130.66930 9874 ft 319 kts 154°
2026-05-08 19:34 33.21557 130.68165 10151 ft 330 kts 154°
2026-05-08 19:34 33.19468 130.69456 10287 ft 346 kts 155°
2026-05-08 19:35 33.17281 130.70802 10415 ft 361 kts 155°
2026-05-08 19:35 33.14999 130.72207 10561 ft 376 kts 155°
2026-05-08 19:35 33.12623 130.73563 10905 ft 380 kts 162°
2026-05-08 19:35 33.10092 130.74436 11383 ft 378 kts 173°
2026-05-08 19:36 33.07489 130.74759 11876 ft 374 kts 184°
2026-05-08 19:36 33.04908 130.74567 12397 ft 371 kts 191°
2026-05-08 19:36 33.02334 130.74244 12906 ft 373 kts 191°
2026-05-08 19:36 32.99750 130.73922 13425 ft 374 kts 192°
2026-05-08 19:37 32.97184 130.73605 13922 ft 376 kts 192°
2026-05-08 19:37 32.94577 130.73285 14366 ft 378 kts 192°
2026-05-08 19:37 32.91955 130.72965 14803 ft 380 kts 192°
2026-05-08 19:37 32.89321 130.72646 15239 ft 381 kts 192°
2026-05-08 19:38 32.86676 130.72327 15685 ft 383 kts 192°
2026-05-08 19:38 32.84015 130.72005 16139 ft 384 kts 192°
2026-05-08 19:38 32.81348 130.71683 16580 ft 386 kts 193°
2026-05-08 19:38 32.78669 130.71358 17016 ft 388 kts 193°
2026-05-08 19:39 32.75976 130.71032 17451 ft 390 kts 193°
2026-05-08 19:39 32.73274 130.70704 17877 ft 392 kts 193°
2026-05-08 19:39 32.70555 130.70376 18300 ft 394 kts 193°
2026-05-08 19:39 32.67826 130.70047 18704 ft 393 kts 193°
2026-05-08 19:40 32.65106 130.69722 19163 ft 393 kts 193°
2026-05-08 19:40 32.62414 130.69401 19561 ft 393 kts 193°
2026-05-08 19:40 32.59693 130.69071 19938 ft 395 kts 194°
2026-05-08 19:40 32.56958 130.68736 20318 ft 396 kts 194°
2026-05-08 19:41 32.54211 130.68401 20676 ft 397 kts 194°
2026-05-08 19:41 32.51453 130.68066 21045 ft 399 kts 194°
2026-05-08 19:41 32.48688 130.67732 21408 ft 399 kts 194°
2026-05-08 19:41 32.45928 130.67401 21827 ft 397 kts 194°
2026-05-08 19:42 32.43169 130.67071 22146 ft 400 kts 194°
2026-05-08 19:42 32.40397 130.66735 22440 ft 401 kts 195°
2026-05-08 19:42 32.37609 130.66396 22759 ft 403 kts 195°
2026-05-08 19:42 32.34816 130.66057 23048 ft 405 kts 195°
2026-05-08 19:43 32.32018 130.65720 23416 ft 405 kts 195°
2026-05-08 19:43 32.29203 130.65383 23709 ft 406 kts 195°
2026-05-08 19:43 32.26387 130.65046 23944 ft 408 kts 195°
2026-05-08 19:43 32.23555 130.64708 24170 ft 409 kts 195°
2026-05-08 19:44 32.20719 130.64371 24438 ft 410 kts 195°
2026-05-08 19:44 32.17875 130.64034 24619 ft 412 kts 195°
2026-05-08 19:44 32.15046 130.63696 24849 ft 413 kts 195°
2026-05-08 19:44 32.12184 130.63350 25078 ft 414 kts 195°
2026-05-08 19:45 32.09311 130.63004 25294 ft 416 kts 195°
2026-05-08 19:45 32.06428 130.62657 25515 ft 417 kts 195°
2026-05-08 19:45 32.03534 130.62309 25726 ft 419 kts 195°
2026-05-08 19:45 32.00629 130.61963 25948 ft 420 kts 195°
2026-05-08 19:46 31.97715 130.61618 26164 ft 422 kts 195°
2026-05-08 19:46 31.94789 130.61272 26364 ft 423 kts 195°
2026-05-08 19:46 31.88908 130.60572 26775 ft 426 kts 196°
2026-05-08 19:47 31.85953 130.60221 26990 ft 427 kts 196°
2026-05-08 19:47 31.82989 130.59870 27197 ft 429 kts 196°
2026-05-08 19:47 31.80016 130.59520 27391 ft 430 kts 196°
2026-05-08 19:47 31.77038 130.59167 27583 ft 431 kts 196°
2026-05-08 19:48 31.74048 130.58810 27766 ft 433 kts 196°
2026-05-08 19:48 31.71059 130.58409 27932 ft 429 kts 200°
2026-05-08 19:48 31.68204 130.57584 28069 ft 418 kts 208°
2026-05-08 19:48 31.65497 130.56385 28279 ft 415 kts 211°
2026-05-08 19:49 31.63707 130.55569 28418 ft 416 kts 211°
2026-05-08 19:49 31.61019 130.54343 28607 ft 417 kts 211°
2026-05-08 19:49 31.58312 130.53111 28805 ft 419 kts 210°
2026-05-08 19:49 31.55574 130.51888 28981 ft 421 kts 210°
2026-05-08 19:50 31.52831 130.50682 29150 ft 422 kts 210°
2026-05-08 19:50 31.50068 130.49477 29329 ft 423 kts 210°
2026-05-08 19:50 31.47308 130.48276 29575 ft 423 kts 210°
2026-05-08 19:50 31.44550 130.47074 29784 ft 423 kts 211°
2026-05-08 19:51 31.41794 130.45864 29970 ft 423 kts 211°
2026-05-08 19:51 31.39037 130.44651 30078 ft 421 kts 211°
2026-05-08 19:51 31.33585 130.42270 30066 ft 416 kts 210°
2026-05-08 19:52 31.28206 130.39925 30092 ft 414 kts 210°
2026-05-08 19:52 31.22842 130.37497 30096 ft 413 kts 212°
2026-05-08 19:53 31.20175 130.36226 30212 ft 415 kts 212°
2026-05-08 19:53 31.17516 130.34948 30332 ft 417 kts 212°
2026-05-08 19:53 31.14833 130.33661 30459 ft 417 kts 211°
2026-05-08 19:53 31.12150 130.32385 30658 ft 417 kts 211°
2026-05-08 19:54 31.09456 130.31118 30853 ft 417 kts 211°
2026-05-08 19:54 31.06765 130.29863 31065 ft 416 kts 211°
2026-05-08 19:54 31.04074 130.28611 31272 ft 416 kts 211°
2026-05-08 19:54 31.01389 130.27361 31454 ft 415 kts 211°
2026-05-08 19:55 30.98711 130.26112 31669 ft 414 kts 211°
2026-05-08 19:55 30.96037 130.24863 31838 ft 414 kts 211°
2026-05-08 19:55 30.93363 130.23616 32012 ft 414 kts 211°
2026-05-08 19:55 30.90685 130.22365 32085 ft 414 kts 211°
2026-05-08 19:56 30.85371 130.19885 32093 ft 414 kts 211°
2026-05-08 19:56 30.80012 130.17398 32092 ft 414 kts 211°
2026-05-08 19:57 30.74680 130.14925 32092 ft 414 kts 211°
2026-05-08 19:57 30.69326 130.12440 32094 ft 414 kts 211°
2026-05-08 19:58 30.63961 130.09966 32098 ft 415 kts 211°
2026-05-08 19:58 30.58590 130.07488 32077 ft 415 kts 211°
2026-05-08 19:59 30.53217 130.05022 32085 ft 416 kts 211°
2026-05-08 19:59 30.47816 130.02592 32106 ft 416 kts 210°
2026-05-08 20:00 30.42424 130.00177 32070 ft 416 kts 210°
2026-05-08 20:00 30.37029 129.97754 32075 ft 416 kts 210°
2026-05-08 20:01 30.31645 129.95366 32086 ft 417 kts 209°
2026-05-08 20:01 30.26174 129.93090 32090 ft 418 kts 208°
2026-05-08 20:02 30.20680 129.90856 32068 ft 418 kts 208°
2026-05-08 20:02 30.15194 129.88598 32073 ft 418 kts 209°
2026-05-08 20:03 30.09714 129.86327 32090 ft 418 kts 209°
2026-05-08 20:03 30.04227 129.84054 32058 ft 418 kts 208°
2026-05-08 20:04 29.99064 129.81221 32067 ft 403 kts 223°
2026-05-08 20:04 29.94674 129.77285 32092 ft 399 kts 225°
2026-05-08 20:05 29.90299 129.73331 32097 ft 400 kts 225°
2026-05-08 20:05 29.85940 129.69407 32070 ft 400 kts 224°
2026-05-08 20:06 29.81554 129.65447 32074 ft 401 kts 224°
2026-05-08 20:06 29.77161 129.61479 32078 ft 401 kts 224°
2026-05-08 20:07 29.72766 129.57520 32098 ft 401 kts 224°
2026-05-08 20:07 29.68370 129.53564 32103 ft 401 kts 224°
2026-05-08 20:08 29.63974 129.49614 32101 ft 400 kts 224°
2026-05-08 20:08 29.59613 129.45697 32103 ft 400 kts 224°
2026-05-08 20:09 29.55230 129.41766 32103 ft 400 kts 224°
2026-05-08 20:09 29.50843 129.37840 32068 ft 400 kts 224°
2026-05-08 20:10 29.46444 129.33908 32094 ft 401 kts 224°
2026-05-08 20:10 29.42039 129.29968 32102 ft 401 kts 224°
2026-05-08 20:11 29.37643 129.26043 32104 ft 400 kts 224°
2026-05-08 20:11 29.33243 129.22127 32077 ft 401 kts 224°
2026-05-08 20:12 29.28832 129.18197 32079 ft 402 kts 224°
2026-05-08 20:12 29.24413 129.14270 32084 ft 402 kts 224°
2026-05-08 20:13 29.20020 129.10367 32097 ft 402 kts 224°
2026-05-08 20:13 29.15592 129.06442 32071 ft 403 kts 224°
2026-05-08 20:14 29.11154 129.02505 32073 ft 404 kts 224°
2026-05-08 20:14 29.06695 128.98553 32079 ft 405 kts 224°
2026-05-08 20:15 29.02238 128.94603 32088 ft 405 kts 223°
2026-05-08 20:15 28.97801 128.90686 32068 ft 405 kts 223°
2026-05-08 20:16 28.93333 128.86749 32087 ft 406 kts 223°
2026-05-08 20:16 28.88860 128.82806 32097 ft 406 kts 223°
2026-05-08 20:17 28.84386 128.78863 32079 ft 406 kts 223°
2026-05-08 20:17 28.79905 128.74925 32086 ft 406 kts 223°
2026-05-08 20:18 28.75427 128.70984 32095 ft 407 kts 223°
2026-05-08 20:18 28.70966 128.67065 32097 ft 407 kts 223°
2026-05-08 20:19 28.66465 128.63128 32091 ft 408 kts 223°
2026-05-08 20:19 28.61968 128.59189 32088 ft 408 kts 223°
2026-05-08 20:20 28.57459 128.55240 32088 ft 409 kts 223°
2026-05-08 20:20 28.52945 128.51297 32095 ft 409 kts 223°
2026-05-08 20:21 28.48426 128.47352 32071 ft 410 kts 223°
2026-05-08 20:21 28.43883 128.43391 32065 ft 414 kts 223°
2026-05-08 20:22 28.39294 128.39399 32071 ft 418 kts 223°
2026-05-08 20:22 28.35448 128.36053 32072 ft 420 kts 223°
2026-05-08 20:23 28.30040 128.31355 32068 ft 421 kts 223°
2026-05-08 20:23 28.25380 128.27314 32083 ft 422 kts 223°
2026-05-08 20:24 28.20717 128.23268 32102 ft 422 kts 223°
2026-05-08 20:24 28.16051 128.19223 32101 ft 422 kts 223°
2026-05-08 20:25 28.11373 128.15182 32083 ft 422 kts 223°
2026-05-08 20:25 28.06696 128.11147 32090 ft 423 kts 223°
2026-05-08 20:26 28.02018 128.07108 32101 ft 423 kts 223°
2026-05-08 20:26 27.97328 128.03064 32106 ft 423 kts 223°
2026-05-08 20:27 27.92679 127.99058 32106 ft 423 kts 223°
2026-05-08 20:27 27.87998 127.95033 32109 ft 423 kts 223°
2026-05-08 20:28 27.83312 127.91002 32114 ft 423 kts 223°
2026-05-08 20:28 27.78623 127.86978 32113 ft 423 kts 223°
2026-05-08 20:29 27.73938 127.82969 32096 ft 422 kts 222°
2026-05-08 20:29 27.69265 127.78970 32101 ft 422 kts 222°
2026-05-08 20:30 27.64591 127.74968 32100 ft 422 kts 222°
2026-05-08 20:30 27.59933 127.70989 32113 ft 422 kts 223°
2026-05-08 20:31 27.55255 127.66999 32083 ft 422 kts 223°
2026-05-08 20:31 27.50563 127.63002 32088 ft 422 kts 223°
2026-05-08 20:32 27.46164 127.58691 32089 ft 418 kts 229°
2026-05-08 20:32 27.41943 127.54186 32098 ft 418 kts 229°
2026-05-08 20:33 27.37713 127.49685 32095 ft 419 kts 228°
2026-05-08 20:33 27.33472 127.45190 32108 ft 419 kts 229°
2026-05-08 20:34 27.29233 127.40705 32097 ft 418 kts 229°
2026-05-08 20:35 27.22903 127.34001 32100 ft 419 kts 229°
2026-05-08 20:35 27.18665 127.29513 32067 ft 419 kts 228°
2026-05-08 20:36 27.14412 127.25013 32070 ft 421 kts 228°
2026-05-08 20:36 27.10139 127.20514 32097 ft 421 kts 228°
2026-05-08 20:37 27.05870 127.16018 32102 ft 421 kts 228°
2026-05-08 20:37 27.02323 127.12277 32086 ft 420 kts 229°
2026-05-08 20:38 26.98059 127.07789 32077 ft 421 kts 229°
2026-05-08 20:38 26.93777 127.03295 32080 ft 421 kts 229°
2026-05-08 20:39 26.89497 126.98806 32090 ft 421 kts 229°
2026-05-08 20:39 26.85214 126.94314 32098 ft 421 kts 229°
2026-05-08 20:40 26.80942 126.89833 32075 ft 421 kts 229°
2026-05-08 20:40 26.76680 126.85370 32083 ft 422 kts 229°
2026-05-08 20:41 26.72385 126.80892 32083 ft 422 kts 229°
2026-05-08 20:41 26.68094 126.76417 32089 ft 422 kts 229°
2026-05-08 20:42 26.63806 126.71942 32080 ft 422 kts 229°
2026-05-08 20:42 26.59501 126.67465 32086 ft 423 kts 229°
2026-05-08 20:43 26.55199 126.62985 32089 ft 423 kts 229°
2026-05-08 20:43 26.50876 126.58497 32088 ft 423 kts 229°
2026-05-08 20:44 26.46598 126.54059 32067 ft 423 kts 229°
2026-05-08 20:44 26.42290 126.49585 32071 ft 423 kts 229°
2026-05-08 20:45 26.37973 126.45107 32075 ft 424 kts 229°
2026-05-08 20:45 26.33653 126.40630 32076 ft 424 kts 229°
2026-05-08 20:46 26.29319 126.36156 32076 ft 424 kts 229°
2026-05-08 20:46 26.24989 126.31683 32049 ft 425 kts 229°
2026-05-08 20:47 26.20644 126.27196 32044 ft 427 kts 228°
2026-05-08 20:47 26.16281 126.22702 32058 ft 428 kts 228°
2026-05-08 20:48 26.11908 126.18202 32060 ft 428 kts 228°
2026-05-08 20:48 26.07566 126.13714 32067 ft 429 kts 229°
2026-05-08 20:49 26.03194 126.09200 32067 ft 429 kts 228°
2026-05-08 20:49 25.98813 126.04696 32072 ft 429 kts 228°
2026-05-08 20:50 25.94434 126.00196 32069 ft 429 kts 228°
2026-05-08 20:50 25.90068 125.95711 32048 ft 429 kts 228°
2026-05-08 20:51 25.85689 125.91207 32054 ft 429 kts 228°
2026-05-08 20:51 25.81308 125.86715 32050 ft 429 kts 228°
2026-05-08 20:52 25.76919 125.82222 32056 ft 429 kts 228°
2026-05-08 20:52 25.72533 125.77744 32052 ft 429 kts 228°
2026-05-08 20:53 25.68147 125.73263 32044 ft 429 kts 228°
2026-05-08 20:53 25.63760 125.68776 32039 ft 429 kts 228°
2026-05-08 20:54 25.59366 125.64291 32044 ft 429 kts 228°
2026-05-08 20:54 25.54966 125.59810 32040 ft 430 kts 228°
2026-05-08 20:55 25.50596 125.55361 32018 ft 430 kts 227°
2026-05-08 20:55 25.46184 125.50881 32015 ft 431 kts 227°
2026-05-08 20:56 25.41750 125.46382 32025 ft 432 kts 227°
2026-05-08 20:56 25.37324 125.41891 32032 ft 432 kts 228°
2026-05-08 20:57 25.32895 125.37392 32031 ft 432 kts 228°
2026-05-08 20:57 25.28483 125.32929 32010 ft 433 kts 227°
2026-05-08 20:58 25.24032 125.28432 32014 ft 434 kts 227°
2026-05-08 20:58 25.19577 125.23926 32033 ft 435 kts 228°
2026-05-08 20:59 25.15111 125.19416 32040 ft 435 kts 227°
2026-05-08 20:59 25.10647 125.14916 32005 ft 435 kts 227°
2026-05-08 21:00 25.06178 125.10414 32002 ft 435 kts 227°
2026-05-08 21:00 25.01702 125.05913 31996 ft 436 kts 227°
2026-05-08 21:01 24.97220 125.01412 31998 ft 436 kts 227°
2026-05-08 21:01 24.92728 124.96898 32016 ft 436 kts 228°
2026-05-08 21:02 24.88244 124.92394 31994 ft 436 kts 227°
2026-05-08 21:02 24.83781 124.87924 32004 ft 436 kts 227°
2026-05-08 21:03 24.79286 124.83435 32013 ft 436 kts 227°
2026-05-08 21:03 24.74791 124.78954 32019 ft 436 kts 227°
2026-05-08 21:04 24.70299 124.74471 32001 ft 436 kts 227°
2026-05-08 21:04 24.65801 124.69986 32013 ft 437 kts 227°
2026-05-08 21:05 24.61296 124.65490 31977 ft 437 kts 227°
2026-05-08 21:05 24.56784 124.61004 32023 ft 438 kts 227°
2026-05-08 21:06 24.52267 124.56522 32019 ft 438 kts 227°
2026-05-08 21:06 24.47747 124.52036 31988 ft 438 kts 227°
2026-05-08 21:07 24.43230 124.47553 32002 ft 438 kts 227°
2026-05-08 21:07 24.38716 124.43088 31999 ft 439 kts 227°
2026-05-08 21:08 24.34184 124.38606 32005 ft 439 kts 227°
2026-05-08 21:08 24.29645 124.34116 32007 ft 440 kts 227°
2026-05-08 21:09 24.25105 124.29626 31991 ft 440 kts 227°
2026-05-08 21:09 24.20551 124.25130 31994 ft 440 kts 227°
2026-05-08 21:10 24.15994 124.20641 32009 ft 440 kts 227°
2026-05-08 21:10 24.11438 124.16161 32008 ft 440 kts 227°
2026-05-08 21:11 24.06883 124.11683 32010 ft 440 kts 227°
2026-05-08 21:11 24.02328 124.07195 32015 ft 441 kts 227°
2026-05-08 21:12 23.97761 124.02719 32012 ft 441 kts 227°
2026-05-08 21:12 23.93650 123.97852 32013 ft 431 kts 240°
2026-05-08 21:13 23.90294 123.92413 32021 ft 432 kts 240°
2026-05-08 21:13 23.86938 123.87020 32002 ft 432 kts 240°
2026-05-08 21:14 23.83545 123.81603 32006 ft 432 kts 240°
2026-05-08 21:14 23.80152 123.76182 32007 ft 432 kts 240°
2026-05-08 21:15 23.76765 123.70759 32009 ft 432 kts 240°
2026-05-08 21:15 23.73381 123.65332 32018 ft 432 kts 240°
2026-05-08 21:16 23.69994 123.59905 32014 ft 432 kts 240°
2026-05-08 21:16 23.66607 123.54492 31993 ft 432 kts 239°
2026-05-08 21:17 23.63207 123.49072 31997 ft 432 kts 239°
2026-05-08 21:17 23.59805 123.43656 32002 ft 433 kts 239°
2026-05-08 21:18 23.56403 123.38236 32003 ft 433 kts 239°
2026-05-08 21:18 23.52990 123.32817 32005 ft 433 kts 239°
2026-05-08 21:19 23.49597 123.27435 31985 ft 433 kts 239°
2026-05-08 21:19 23.46186 123.22017 31982 ft 434 kts 239°
2026-05-08 21:20 23.42767 123.16588 31981 ft 435 kts 239°
2026-05-08 21:20 23.39330 123.11151 31980 ft 436 kts 239°
2026-05-08 21:21 23.35884 123.05713 31986 ft 437 kts 239°
2026-05-08 21:21 23.32435 123.00266 31990 ft 437 kts 239°
2026-05-08 21:22 23.28811 122.94978 31976 ft 440 kts 236°
2026-05-08 21:22 23.24963 122.89792 31979 ft 441 kts 235°
2026-05-08 21:23 23.21114 122.84592 31983 ft 441 kts 236°
2026-05-08 21:23 23.17302 122.79353 31991 ft 441 kts 236°
2026-05-08 21:24 23.14152 122.74990 32001 ft 441 kts 236°
2026-05-08 21:24 23.10354 122.69750 32005 ft 441 kts 236°
2026-05-08 21:25 23.06538 122.64514 31989 ft 442 kts 236°
2026-05-08 21:25 23.02721 122.59275 32008 ft 442 kts 236°
2026-05-08 21:26 22.98913 122.54037 32012 ft 441 kts 236°
2026-05-08 21:26 22.95134 122.48856 32013 ft 440 kts 236°
2026-05-08 21:27 22.91329 122.43650 32008 ft 440 kts 236°
2026-05-08 21:27 22.87520 122.38441 31994 ft 440 kts 236°
2026-05-08 21:28 22.83709 122.33236 31997 ft 441 kts 236°
2026-05-08 21:28 22.79898 122.28030 32011 ft 441 kts 236°
2026-05-08 21:29 22.76091 122.22828 32010 ft 440 kts 236°
2026-05-08 21:29 22.72278 122.17634 32013 ft 440 kts 236°
2026-05-08 21:30 22.68461 122.12446 32011 ft 440 kts 236°
2026-05-08 21:30 22.64644 122.07254 32003 ft 441 kts 236°
2026-05-08 21:31 22.60850 122.02089 32009 ft 441 kts 236°
2026-05-08 21:31 22.57023 121.96899 32009 ft 441 kts 236°
2026-05-08 21:32 22.53196 121.91710 32008 ft 441 kts 236°
2026-05-08 21:32 22.49368 121.86523 32008 ft 441 kts 236°
2026-05-08 21:33 22.45533 121.81330 32001 ft 441 kts 236°
2026-05-08 21:33 22.41700 121.76142 31997 ft 442 kts 235°
2026-05-08 21:34 22.37855 121.70949 32003 ft 442 kts 235°
2026-05-08 21:34 22.34007 121.65765 32005 ft 442 kts 235°
2026-05-08 21:35 22.30160 121.60579 32009 ft 442 kts 235°
2026-05-08 21:35 22.26328 121.55415 32011 ft 442 kts 235°
2026-05-08 21:36 22.22481 121.50235 31987 ft 443 kts 235°
2026-05-08 21:36 22.18631 121.45053 31986 ft 445 kts 235°
2026-05-08 21:37 22.14759 121.39842 31987 ft 445 kts 235°
2026-05-08 21:37 22.10875 121.34634 31993 ft 446 kts 235°
2026-05-08 21:38 22.06980 121.29411 31998 ft 446 kts 235°
2026-05-08 21:38 22.03083 121.24204 32000 ft 446 kts 235°
2026-05-08 21:39 21.99191 121.19004 32003 ft 446 kts 235°
2026-05-08 21:39 21.95285 121.13788 32009 ft 446 kts 235°
2026-05-08 21:40 21.91386 121.08588 32012 ft 446 kts 235°
2026-05-08 21:40 21.87507 121.03412 32012 ft 446 kts 235°
2026-05-08 21:41 21.81666 120.95631 32013 ft 446 kts 234°
2026-05-08 21:41 21.77750 120.90426 31974 ft 447 kts 234°
2026-05-08 21:42 21.73832 120.85213 31972 ft 449 kts 234°
2026-05-08 21:42 21.69901 120.79995 31972 ft 449 kts 234°
2026-05-08 21:43 21.65961 120.74773 31981 ft 450 kts 234°
2026-05-08 21:43 21.62034 120.69572 31981 ft 450 kts 234°
2026-05-08 21:44 21.58090 120.64343 31978 ft 450 kts 234°
2026-05-08 21:44 21.54141 120.59112 31976 ft 451 kts 234°
2026-05-08 21:45 21.50174 120.53874 31976 ft 452 kts 234°
2026-05-08 21:45 21.46204 120.48641 31983 ft 452 kts 234°
2026-05-08 21:46 21.42232 120.43405 31990 ft 452 kts 234°
2026-05-08 21:46 21.38287 120.38202 31990 ft 452 kts 234°
2026-05-08 21:47 21.34306 120.32962 31978 ft 453 kts 234°
2026-05-08 21:47 21.30326 120.27730 31977 ft 453 kts 234°
2026-05-08 21:48 21.26334 120.22489 31979 ft 453 kts 233°
2026-05-08 21:48 21.22340 120.17240 31979 ft 454 kts 233°
2026-05-08 21:49 21.18348 120.12005 31982 ft 453 kts 235°
2026-05-08 21:49 21.14350 120.06775 31979 ft 454 kts 234°
2026-05-08 21:50 21.10372 120.01569 31962 ft 455 kts 234°
2026-05-08 21:50 21.06354 119.96313 31961 ft 456 kts 234°
2026-05-08 21:51 21.02329 119.91061 31968 ft 456 kts 234°
2026-05-08 21:51 20.98107 119.85958 31967 ft 459 kts 229°
2026-05-08 21:52 20.93608 119.81100 31964 ft 460 kts 229°
2026-05-08 21:52 20.89104 119.76239 31957 ft 460 kts 229°
2026-05-08 21:53 20.84619 119.71403 31956 ft 461 kts 229°
2026-05-08 21:53 20.80086 119.66522 31954 ft 462 kts 229°
2026-05-08 21:54 20.75554 119.61648 31964 ft 463 kts 228°
2026-05-08 21:54 20.71007 119.56766 31972 ft 463 kts 229°
2026-05-08 21:55 20.66455 119.51877 31975 ft 464 kts 229°
2026-05-08 21:56 20.59622 119.44546 31965 ft 465 kts 228°
2026-05-08 21:56 20.55058 119.39663 31969 ft 465 kts 228°
2026-05-08 21:57 20.50488 119.34766 31973 ft 466 kts 228°
2026-05-08 21:57 20.45945 119.29889 31974 ft 466 kts 228°
2026-05-08 21:58 20.41356 119.24990 31963 ft 466 kts 228°
2026-05-08 21:58 20.36759 119.20093 31966 ft 467 kts 228°
2026-05-08 21:59 20.32165 119.15194 31973 ft 467 kts 228°
2026-05-08 21:59 20.27564 119.10289 31975 ft 467 kts 228°
2026-05-08 22:00 20.22989 119.05422 31969 ft 467 kts 228°
2026-05-08 22:00 20.18382 119.00526 31972 ft 467 kts 228°
2026-05-08 22:01 20.13780 118.95629 31974 ft 468 kts 228°
2026-05-08 22:01 20.09181 118.90731 31966 ft 468 kts 228°
2026-05-08 22:02 20.04584 118.85848 31980 ft 467 kts 227°
2026-05-08 22:02 19.99975 118.80971 31976 ft 467 kts 227°
2026-05-08 22:03 19.95389 118.76121 31981 ft 468 kts 227°
2026-05-08 22:03 19.90783 118.71243 31958 ft 467 kts 227°
2026-05-08 22:04 19.86177 118.66363 31954 ft 468 kts 227°
2026-05-08 22:04 19.81557 118.61484 31972 ft 468 kts 227°
2026-05-08 22:05 19.76944 118.56613 31975 ft 468 kts 227°
2026-05-08 22:05 19.72334 118.51743 31977 ft 468 kts 227°
2026-05-08 22:06 19.67715 118.46882 31973 ft 468 kts 227°
2026-05-08 22:06 19.63097 118.42023 31975 ft 467 kts 227°
2026-05-08 22:07 19.58482 118.37164 31970 ft 467 kts 227°
2026-05-08 22:07 19.53866 118.32317 31971 ft 467 kts 227°
2026-05-08 22:08 19.49287 118.27509 31961 ft 466 kts 227°
2026-05-08 22:08 19.44680 118.22674 31973 ft 466 kts 227°
2026-05-08 22:09 19.40057 118.17832 31946 ft 466 kts 227°
2026-05-08 22:09 19.35435 118.12997 31947 ft 467 kts 227°
2026-05-08 22:10 19.30810 118.08152 31958 ft 468 kts 227°
2026-05-08 22:10 19.26178 118.03305 31965 ft 468 kts 227°
2026-05-08 22:11 19.21531 117.98448 31966 ft 469 kts 227°
2026-05-08 22:11 19.16924 117.93634 31965 ft 469 kts 227°
2026-05-08 22:12 19.12274 117.88786 31955 ft 469 kts 227°
2026-05-08 22:12 19.07623 117.83939 31955 ft 470 kts 227°
2026-05-08 22:13 19.03758 117.79910 31955 ft 470 kts 227°
2026-05-08 22:13 18.98320 117.74259 31953 ft 470 kts 227°
2026-05-08 22:14 18.94416 117.70196 31956 ft 470 kts 227°
2026-05-08 22:14 18.89749 117.65346 31950 ft 470 kts 227°
2026-05-08 22:15 18.85112 117.60531 31934 ft 471 kts 227°
2026-05-08 22:15 18.80430 117.55676 31948 ft 472 kts 227°
2026-05-08 22:16 18.75745 117.50825 31949 ft 472 kts 227°
2026-05-08 22:16 18.71045 117.45965 31957 ft 472 kts 227°
2026-05-08 22:17 18.66362 117.41115 31960 ft 472 kts 227°
2026-05-08 22:17 18.61670 117.36265 31955 ft 472 kts 227°
2026-05-08 22:18 18.56976 117.31418 31952 ft 472 kts 227°
2026-05-08 22:18 18.52286 117.26575 31951 ft 472 kts 227°
2026-05-08 22:19 18.47590 117.21726 31951 ft 472 kts 227°
2026-05-08 22:19 18.42896 117.16889 31955 ft 472 kts 226°
2026-05-08 22:20 18.38237 117.12096 31959 ft 471 kts 226°
2026-05-08 22:20 18.33541 117.07266 31952 ft 472 kts 226°
2026-05-08 22:21 18.28842 117.02433 31949 ft 472 kts 226°
2026-05-08 22:21 18.24137 116.97611 31950 ft 472 kts 226°
2026-05-08 22:22 18.19462 116.92808 31956 ft 472 kts 226°
2026-05-08 22:22 18.14730 116.87955 31956 ft 472 kts 226°
2026-05-08 22:23 18.10052 116.83172 31954 ft 472 kts 226°
2026-05-08 22:23 18.05341 116.78353 31950 ft 472 kts 226°
2026-05-08 22:24 18.00641 116.73535 31951 ft 472 kts 226°
2026-05-08 22:24 17.95939 116.68721 31951 ft 472 kts 226°
2026-05-08 22:25 17.91227 116.63913 31953 ft 472 kts 225°
2026-05-08 22:25 17.86511 116.59110 31952 ft 472 kts 226°
2026-05-08 22:26 17.81799 116.54303 31942 ft 473 kts 225°
2026-05-08 22:26 17.77081 116.49493 31944 ft 473 kts 226°
2026-05-08 22:27 17.72355 116.44678 31941 ft 474 kts 226°
2026-05-08 22:27 17.67650 116.39897 31944 ft 474 kts 226°
2026-05-08 22:28 17.62912 116.35081 31952 ft 474 kts 225°
2026-05-08 22:28 17.58174 116.30267 31951 ft 474 kts 226°
2026-05-08 22:29 17.53432 116.25450 31944 ft 475 kts 225°
2026-05-08 22:29 17.48674 116.20629 31940 ft 475 kts 225°
2026-05-08 22:30 17.43908 116.15802 31944 ft 476 kts 225°
2026-05-08 22:30 17.39183 116.11003 31946 ft 476 kts 225°
2026-05-08 22:31 17.34426 116.06183 31954 ft 476 kts 225°
2026-05-08 22:31 17.29664 116.01371 31948 ft 476 kts 225°
2026-05-08 22:32 17.24893 115.96562 31943 ft 476 kts 225°
2026-05-08 22:32 17.20118 115.91746 31943 ft 477 kts 225°
2026-05-08 22:33 17.15350 115.86932 31949 ft 477 kts 225°
2026-05-08 22:33 17.10572 115.82119 31949 ft 477 kts 225°
2026-05-08 22:34 17.05783 115.77307 31950 ft 477 kts 225°
2026-05-08 22:34 17.01013 115.72495 31946 ft 477 kts 225°
2026-05-08 22:35 16.96261 115.67712 31949 ft 477 kts 225°
2026-05-08 22:35 16.91450 115.62883 31951 ft 477 kts 225°
2026-05-08 22:36 16.86701 115.58100 31956 ft 477 kts 225°
2026-05-08 22:36 16.81921 115.53306 31954 ft 476 kts 225°
2026-05-08 22:37 16.77145 115.48518 31955 ft 476 kts 224°
2026-05-08 22:37 16.72367 115.43735 31942 ft 476 kts 224°
2026-05-08 22:38 16.67576 115.38949 31945 ft 476 kts 224°
2026-05-08 22:38 16.62820 115.34198 31943 ft 476 kts 225°
2026-05-08 22:39 16.58040 115.29410 31952 ft 476 kts 224°
2026-05-08 22:39 16.53257 115.24623 31950 ft 476 kts 225°
2026-05-08 22:40 16.48479 115.19848 31950 ft 476 kts 224°
2026-05-08 22:40 16.43700 115.15081 31942 ft 476 kts 224°
2026-05-08 22:41 16.38917 115.10302 31946 ft 476 kts 224°
2026-05-08 22:41 16.34160 115.05569 31941 ft 476 kts 224°
2026-05-08 22:42 16.29368 115.00806 31942 ft 476 kts 224°
2026-05-08 22:42 16.24575 114.96038 31938 ft 476 kts 224°
2026-05-08 22:43 16.19791 114.91277 31947 ft 476 kts 224°
2026-05-08 22:43 16.15006 114.86523 31933 ft 476 kts 224°
2026-05-08 22:44 16.10216 114.81773 31940 ft 476 kts 224°
2026-05-08 22:44 16.05419 114.77029 31934 ft 476 kts 224°
2026-05-08 22:45 16.00641 114.72292 31935 ft 476 kts 224°
2026-05-08 22:45 15.95857 114.67538 31930 ft 476 kts 224°
2026-05-08 22:46 15.91098 114.62812 31939 ft 476 kts 224°
2026-05-08 22:46 15.86301 114.58068 31930 ft 476 kts 224°
2026-05-08 22:47 15.81487 114.53322 31931 ft 477 kts 224°
2026-05-08 22:47 15.76675 114.48571 31933 ft 478 kts 224°
2026-05-08 22:48 15.71859 114.43812 31938 ft 478 kts 224°
2026-05-08 22:48 15.67047 114.39059 31939 ft 478 kts 224°
2026-05-08 22:49 15.62245 114.34339 31944 ft 477 kts 224°
2026-05-08 22:49 15.55021 114.27221 31935 ft 477 kts 224°
2026-05-08 22:50 15.50201 114.22464 31934 ft 478 kts 224°
2026-05-08 22:50 15.45377 114.17714 31940 ft 478 kts 224°
2026-05-08 22:51 15.40552 114.12980 31934 ft 478 kts 224°
2026-05-08 22:51 15.35726 114.08238 31939 ft 477 kts 224°
2026-05-08 22:52 15.30937 114.03544 31935 ft 477 kts 223°
2026-05-08 22:52 15.25970 113.99002 31934 ft 476 kts 216°
2026-05-08 22:53 15.20582 113.95006 31926 ft 477 kts 216°
2026-05-08 22:53 15.15188 113.91000 31932 ft 477 kts 216°
2026-05-08 22:54 15.09786 113.86987 31924 ft 477 kts 216°
2026-05-08 22:54 15.04388 113.82991 31933 ft 477 kts 216°
2026-05-08 22:55 14.98988 113.79004 31923 ft 477 kts 215°
2026-05-08 22:55 14.93618 113.75042 31928 ft 477 kts 215°
2026-05-08 22:56 14.88212 113.71040 31918 ft 477 kts 216°
2026-05-08 22:56 14.82819 113.67049 31926 ft 477 kts 216°
2026-05-08 22:57 14.77420 113.63060 31919 ft 477 kts 216°
2026-05-08 22:57 14.72020 113.59058 31929 ft 477 kts 216°
2026-05-08 22:58 14.66623 113.55070 31923 ft 477 kts 215°
2026-05-08 22:58 14.61217 113.51097 31928 ft 477 kts 215°
2026-05-08 22:59 14.55844 113.47146 31920 ft 477 kts 215°
2026-05-08 22:59 14.50436 113.43166 31925 ft 477 kts 215°
2026-05-08 23:00 14.45035 113.39182 31924 ft 477 kts 215°
2026-05-08 23:00 14.39643 113.35198 31928 ft 476 kts 215°
2026-05-08 23:01 14.34287 113.31237 31926 ft 476 kts 215°
2026-05-08 23:01 14.28900 113.27259 31928 ft 476 kts 215°
2026-05-08 23:02 14.23512 113.23286 31921 ft 476 kts 215°
2026-05-08 23:02 14.18121 113.19317 31925 ft 476 kts 215°
2026-05-08 23:03 14.12727 113.15341 31920 ft 476 kts 214°
2026-05-08 23:03 14.07338 113.11380 31929 ft 476 kts 215°
2026-05-08 23:04 14.02855 113.08087 31923 ft 476 kts 214°
2026-05-08 23:04 13.97952 113.03534 31924 ft 476 kts 231°
2026-05-08 23:05 13.94555 112.97703 31918 ft 476 kts 243°
2026-05-08 23:05 13.91497 112.91666 31921 ft 476 kts 242°
2026-05-08 23:06 13.88414 112.85629 31919 ft 477 kts 242°
2026-05-08 23:06 13.85329 112.79591 31924 ft 477 kts 242°
2026-05-08 23:07 13.82251 112.73553 31932 ft 476 kts 242°
2026-05-08 23:07 13.79183 112.67514 31921 ft 476 kts 242°
2026-05-08 23:08 13.76122 112.61505 31929 ft 477 kts 242°
2026-05-08 23:08 13.73026 112.55431 31923 ft 477 kts 242°
2026-05-08 23:09 13.69966 112.49424 31921 ft 476 kts 242°
2026-05-08 23:09 13.66881 112.43395 31925 ft 476 kts 242°
2026-05-08 23:10 13.63793 112.37372 31926 ft 476 kts 242°
2026-05-08 23:10 13.60713 112.31350 31929 ft 476 kts 241°
2026-05-08 23:11 13.57628 112.25332 31922 ft 476 kts 241°
2026-05-08 23:11 13.54543 112.19320 31922 ft 476 kts 242°
2026-05-08 23:12 13.51456 112.13300 31918 ft 476 kts 241°
2026-05-08 23:12 13.48374 112.07294 31916 ft 476 kts 241°
2026-05-08 23:13 13.45305 112.01316 31913 ft 476 kts 241°
2026-05-08 23:13 13.42215 111.95306 31910 ft 476 kts 241°
2026-05-08 23:14 13.39127 111.89299 31911 ft 476 kts 241°
2026-05-08 23:14 13.36036 111.83290 31910 ft 476 kts 241°
2026-05-08 23:15 13.32939 111.77276 31915 ft 476 kts 241°
2026-05-08 23:15 13.29842 111.71269 31918 ft 476 kts 241°
2026-05-08 23:16 13.26746 111.65262 31914 ft 476 kts 241°
2026-05-08 23:16 13.23643 111.59247 31917 ft 476 kts 241°
2026-05-08 23:17 13.20562 111.53279 31918 ft 476 kts 242°
2026-05-08 23:17 13.17463 111.47273 31919 ft 476 kts 241°
2026-05-08 23:18 13.14351 111.41274 31925 ft 476 kts 241°
2026-05-08 23:18 13.11233 111.35279 31920 ft 476 kts 241°
2026-05-08 23:19 13.08124 111.29284 31919 ft 476 kts 241°
2026-05-08 23:19 13.05024 111.23287 31918 ft 476 kts 241°
2026-05-08 23:20 13.01913 111.17286 31917 ft 476 kts 241°
2026-05-08 23:20 12.98803 111.11297 31920 ft 476 kts 241°
2026-05-08 23:21 12.95692 111.05305 31923 ft 476 kts 241°
2026-05-08 23:21 12.92601 110.99358 31924 ft 476 kts 241°
2026-05-08 23:22 12.89493 110.93370 31916 ft 476 kts 241°
2026-05-08 23:22 12.86371 110.87371 31919 ft 476 kts 241°
2026-05-08 23:23 12.83243 110.81381 31928 ft 476 kts 241°
2026-05-08 23:23 12.80127 110.75406 31919 ft 476 kts 241°
2026-05-08 23:24 12.77002 110.69422 31917 ft 476 kts 241°
2026-05-08 23:24 12.73908 110.63481 31916 ft 476 kts 241°
2026-05-08 23:25 12.70781 110.57502 31918 ft 476 kts 241°
2026-05-08 23:25 12.67648 110.51528 31921 ft 476 kts 241°
2026-05-08 23:26 12.64520 110.45552 31917 ft 476 kts 241°
2026-05-08 23:26 12.61395 110.39576 31919 ft 475 kts 241°
2026-05-08 23:27 12.58293 110.33644 31920 ft 475 kts 241°
2026-05-08 23:27 12.55172 110.27692 31920 ft 475 kts 241°
2026-05-08 23:28 12.52036 110.21728 31920 ft 475 kts 241°
2026-05-08 23:28 12.48904 110.15769 31919 ft 475 kts 241°
2026-05-08 23:29 12.45776 110.09807 31926 ft 475 kts 241°
2026-05-08 23:29 12.42642 110.03846 31931 ft 475 kts 241°
2026-05-08 23:30 12.39507 109.97895 31927 ft 475 kts 241°
2026-05-08 23:30 12.36374 109.91948 31929 ft 475 kts 241°
2026-05-08 23:31 12.33247 109.86002 31923 ft 475 kts 241°
2026-05-08 23:31 12.30135 109.80090 31924 ft 475 kts 241°
2026-05-08 23:32 12.26999 109.74147 31928 ft 475 kts 241°
2026-05-08 23:32 12.23855 109.68190 31923 ft 475 kts 241°
2026-05-08 23:33 12.20719 109.62237 31932 ft 475 kts 241°
2026-05-08 23:33 12.17583 109.56292 31924 ft 475 kts 241°
2026-05-08 23:34 12.14433 109.50353 31927 ft 475 kts 241°
2026-05-08 23:34 12.11489 109.44426 31915 ft 452 kts 252°
2026-05-08 23:35 12.10844 109.41361 31922 ft 436 kts 267°
2026-05-08 23:35 12.10933 109.38296 31927 ft 429 kts 281°
2026-05-08 23:35 12.11714 109.35380 31925 ft 425 kts 295°
2026-05-08 23:35 12.13108 109.32790 31925 ft 422 kts 308°
2026-05-08 23:36 12.15059 109.30576 31925 ft 418 kts 322°
2026-05-08 23:36 12.17438 109.28896 31926 ft 415 kts 335°
2026-05-08 23:36 12.20107 109.27829 31927 ft 412 kts 349°
2026-05-08 23:36 12.22924 109.27411 31929 ft 408 kts
2026-05-08 23:37 12.25739 109.27643 31930 ft 405 kts 14°
2026-05-08 23:37 12.28412 109.28506 31931 ft 402 kts 27°
2026-05-08 23:37 12.30802 109.29938 31928 ft 399 kts 39°
2026-05-08 23:37 12.32832 109.31882 31924 ft 397 kts 51°
2026-05-08 23:38 12.35881 109.36575 31922 ft 397 kts 61°
2026-05-08 23:38 12.38443 109.41587 31913 ft 397 kts 64°
2026-05-08 23:39 12.40912 109.46652 31911 ft 398 kts 68°
2026-05-08 23:39 12.41733 109.49337 31913 ft 397 kts 80°
2026-05-08 23:39 12.41983 109.52140 31911 ft 396 kts 92°
2026-05-08 23:40 12.41648 109.54897 31904 ft 397 kts 103°
2026-05-08 23:40 12.40717 109.57555 31903 ft 398 kts 116°
2026-05-08 23:40 12.39231 109.59945 31901 ft 400 kts 128°
2026-05-08 23:40 12.37258 109.61948 31898 ft 402 kts 141°
2026-05-08 23:41 12.34877 109.63466 31901 ft 406 kts 153°
2026-05-08 23:41 12.32203 109.64413 31896 ft 409 kts 167°
2026-05-08 23:41 12.29365 109.64720 31894 ft 413 kts 180°
2026-05-08 23:41 12.26507 109.64348 31894 ft 416 kts 194°
2026-05-08 23:42 12.23789 109.63312 31894 ft 419 kts 207°
2026-05-08 23:42 12.21362 109.61659 31891 ft 421 kts 221°
2026-05-08 23:42 12.19364 109.59455 31910 ft 425 kts 234°
2026-05-08 23:42 12.17857 109.56848 31928 ft 428 kts 241°
2026-05-08 23:43 12.15038 109.51475 31931 ft 429 kts 241°
2026-05-08 23:43 12.12207 109.46089 31932 ft 430 kts 244°
2026-05-08 23:44 12.11235 109.43261 31930 ft 428 kts 261°
2026-05-08 23:44 12.11059 109.40244 31937 ft 426 kts 277°
2026-05-08 23:44 12.11700 109.37310 31941 ft 423 kts 294°
2026-05-08 23:44 12.13104 109.34690 31935 ft 419 kts 310°
2026-05-08 23:45 12.15124 109.32593 31928 ft 414 kts 326°
2026-05-08 23:45 12.17591 109.31130 31922 ft 409 kts 341°
2026-05-08 23:45 12.20323 109.30390 31915 ft 404 kts 356°
2026-05-08 23:45 12.23112 109.30409 31913 ft 400 kts 12°
2026-05-08 23:46 12.25773 109.31167 31907 ft 396 kts 26°
2026-05-08 23:46 12.28140 109.32592 31905 ft 394 kts 41°
2026-05-08 23:46 12.30049 109.34568 31904 ft 392 kts 55°
2026-05-08 23:46 12.31569 109.36882 31905 ft 392 kts 59°
2026-05-08 23:47 12.34207 109.41782 31899 ft 394 kts 63°
2026-05-08 23:47 12.36661 109.46768 31904 ft 396 kts 65°
2026-05-08 23:48 12.37592 109.49404 31902 ft 395 kts 79°
2026-05-08 23:48 12.37861 109.52187 31905 ft 394 kts 92°
2026-05-08 23:48 12.37444 109.54951 31903 ft 395 kts 107°
2026-05-08 23:48 12.36347 109.57521 31901 ft 396 kts 121°
2026-05-08 23:49 12.34624 109.59722 31899 ft 399 kts 135°
2026-05-08 23:49 12.32382 109.61404 31895 ft 403 kts 151°
2026-05-08 23:49 12.29762 109.62433 31885 ft 407 kts 164°
2026-05-08 23:49 12.26929 109.62732 31904 ft 413 kts 181°
2026-05-08 23:50 12.24088 109.62241 31902 ft 418 kts 197°
2026-05-08 23:50 12.21462 109.60967 31901 ft 420 kts 213°
2026-05-08 23:50 12.19272 109.59001 31899 ft 422 kts 230°
2026-05-08 23:50 12.17581 109.56542 31900 ft 423 kts 237°
2026-05-08 23:51 12.14671 109.51262 31938 ft 429 kts 242°
2026-05-08 23:51 12.11978 109.45822 31933 ft 429 kts 243°
2026-05-08 23:52 12.09206 109.40368 31939 ft 441 kts 242°
2026-05-08 23:52 12.06250 109.34778 31945 ft 453 kts 241°
2026-05-08 23:53 12.03186 109.29053 31948 ft 465 kts 241°
2026-05-08 23:53 12.00091 109.23176 31945 ft 471 kts 245°
2026-05-08 23:54 11.98080 109.16813 31946 ft 472 kts 255°
2026-05-08 23:55 11.95490 109.07106 31948 ft 472 kts 255°
2026-05-08 23:55 11.94038 109.01736 31946 ft 472 kts 255°
2026-05-08 23:56 11.92305 108.95274 31962 ft 472 kts 255°
2026-05-08 23:56 11.90473 108.88842 31962 ft 472 kts 253°
2026-05-08 23:57 11.88549 108.82437 31979 ft 471 kts 253°
2026-05-08 23:57 11.86707 108.76013 31978 ft 471 kts 254°
2026-05-08 23:58 11.84922 108.69598 31992 ft 471 kts 254°
2026-05-08 23:58 11.83120 108.63170 31976 ft 471 kts 254°
2026-05-08 23:59 11.81314 108.56730 31986 ft 471 kts 254°
2026-05-08 23:59 11.79536 108.50342 31651 ft 460 kts 254°
2026-05-08 23:59 11.78668 108.47234 31415 ft 451 kts 254°
2026-05-09 00:00 11.77813 108.44178 31176 ft 446 kts 254°
2026-05-09 00:00 11.76965 108.41146 30951 ft 443 kts 254°
2026-05-09 00:00 11.76116 108.38132 30688 ft 439 kts 252°
2026-05-09 00:00 11.74983 108.35252 30223 ft 437 kts 242°
2026-05-09 00:01 11.73400 108.32613 29710 ft 435 kts 234°
2026-05-09 00:01 11.71649 108.30109 29230 ft 432 kts 234°
2026-05-09 00:01 11.69940 108.27654 28789 ft 428 kts 234°
2026-05-09 00:01 11.68223 108.25183 28349 ft 425 kts 234°
2026-05-09 00:02 11.66516 108.22728 27918 ft 423 kts 234°
2026-05-09 00:02 11.64818 108.20288 27499 ft 420 kts 234°
2026-05-09 00:02 11.63131 108.17862 27086 ft 418 kts 234°
2026-05-09 00:02 11.61460 108.15461 26689 ft 416 kts 234°
2026-05-09 00:03 11.59784 108.13052 26255 ft 414 kts 234°
2026-05-09 00:03 11.58120 108.10659 25853 ft 413 kts 234°
2026-05-09 00:03 11.56463 108.08275 25422 ft 411 kts 235°
2026-05-09 00:03 11.54811 108.05897 25013 ft 410 kts 235°
2026-05-09 00:04 11.53154 108.03516 24586 ft 409 kts 235°
2026-05-09 00:04 11.51509 108.01154 24157 ft 409 kts 235°
2026-05-09 00:04 11.49863 107.98792 23724 ft 409 kts 235°
2026-05-09 00:04 11.48216 107.96429 23233 ft 408 kts 235°
2026-05-09 00:05 11.46578 107.94081 22760 ft 406 kts 234°
2026-05-09 00:05 11.44964 107.91772 22319 ft 404 kts 234°
2026-05-09 00:05 11.43342 107.89445 21865 ft 401 kts 234°
2026-05-09 00:05 11.41730 107.87134 21417 ft 400 kts 234°
2026-05-09 00:06 11.40122 107.84831 20963 ft 398 kts 234°
2026-05-09 00:06 11.38521 107.82540 20507 ft 396 kts 234°
2026-05-09 00:06 11.36924 107.80256 20059 ft 394 kts 234°
2026-05-09 00:06 11.35338 107.77984 19610 ft 393 kts 233°
2026-05-09 00:07 11.33755 107.75717 19138 ft 391 kts 233°
2026-05-09 00:07 11.32179 107.73463 18689 ft 390 kts 233°
2026-05-09 00:07 11.30606 107.71213 18243 ft 388 kts 233°
2026-05-09 00:07 11.29042 107.68976 17741 ft 386 kts 233°
2026-05-09 00:08 11.27493 107.66764 17302 ft 383 kts 233°
2026-05-09 00:08 11.25972 107.64591 16866 ft 379 kts 233°
2026-05-09 00:08 11.24449 107.62413 16425 ft 376 kts 233°
2026-05-09 00:08 11.22854 107.60323 15979 ft 371 kts 224°
2026-05-09 00:09 11.21029 107.58483 15548 ft 368 kts 222°
2026-05-09 00:09 11.19208 107.56667 15119 ft 365 kts 222°
2026-05-09 00:09 11.17398 107.54862 14694 ft 363 kts 222°
2026-05-09 00:09 11.15602 107.53073 14265 ft 360 kts 222°
2026-05-09 00:10 11.13812 107.51292 13854 ft 358 kts 222°
2026-05-09 00:10 11.12035 107.49529 13415 ft 355 kts 222°
2026-05-09 00:10 11.10274 107.47779 13002 ft 352 kts 222°
2026-05-09 00:10 11.08531 107.46043 12591 ft 349 kts 222°
2026-05-09 00:11 11.06823 107.44342 12186 ft 346 kts 222°
2026-05-09 00:11 11.05122 107.42648 12013 ft 336 kts 222°
2026-05-09 00:11 11.03484 107.41013 11873 ft 325 kts 222°
2026-05-09 00:11 11.02040 107.39271 11604 ft 322 kts 236°
2026-05-09 00:12 11.01080 107.37220 11261 ft 321 kts 252°
2026-05-09 00:12 11.00576 107.35009 10887 ft 320 kts 257°
2026-05-09 00:12 11.00118 107.32794 10535 ft 319 kts 257°
2026-05-09 00:12 10.99655 107.30590 10193 ft 318 kts 257°
2026-05-09 00:13 10.99191 107.28401 9844 ft 316 kts 257°
2026-05-09 00:13 10.98911 107.26191 9479 ft 315 kts 274°
2026-05-09 00:13 10.99457 107.24063 9121 ft 311 kts 299°
2026-05-09 00:13 11.00790 107.22390 8964 ft 298 kts 324°
2026-05-09 00:14 11.02600 107.21375 9006 ft 299 kts 341°
2026-05-09 00:14 11.04549 107.20619 9004 ft 300 kts 341°
2026-05-09 00:14 11.06498 107.19868 9003 ft 300 kts 340°
2026-05-09 00:14 11.08336 107.18848 9004 ft 303 kts 325°
2026-05-09 00:15 11.09987 107.17546 9002 ft 303 kts 324°
2026-05-09 00:15 11.11676 107.16208 9004 ft 304 kts 324°
2026-05-09 00:15 11.13322 107.14905 9009 ft 304 kts 324°
2026-05-09 00:15 11.14964 107.13553 9001 ft 305 kts 317°
2026-05-09 00:16 11.16327 107.11892 9003 ft 306 kts 306°
2026-05-09 00:16 11.17547 107.10114 9002 ft 306 kts 306°
2026-05-09 00:16 11.18777 107.08332 8999 ft 306 kts 306°
2026-05-09 00:16 11.20001 107.06561 9000 ft 306 kts 306°
2026-05-09 00:17 11.21096 107.04702 8997 ft 307 kts 294°
2026-05-09 00:17 11.21806 107.02654 8998 ft 306 kts 288°
2026-05-09 00:17 11.22398 107.00583 8995 ft 305 kts 278°
2026-05-09 00:17 11.22323 106.98443 8999 ft 304 kts 253°
2026-05-09 00:18 11.21415 106.96520 8983 ft 302 kts 230°
2026-05-09 00:18 11.19850 106.95117 8553 ft 300 kts 205°
2026-05-09 00:18 11.17917 106.94498 8193 ft 294 kts 186°
2026-05-09 00:18 11.15901 106.94177 7849 ft 293 kts 187°
2026-05-09 00:19 11.13894 106.93845 7511 ft 291 kts 187°
2026-05-09 00:19 11.11899 106.93509 7167 ft 290 kts 187°
2026-05-09 00:19 11.09911 106.93172 6829 ft 289 kts 187°
2026-05-09 00:19 11.07925 106.92834 6483 ft 288 kts 187°
2026-05-09 00:20 11.05951 106.92498 6199 ft 285 kts 188°
2026-05-09 00:20 11.04009 106.92168 5938 ft 281 kts 188°
2026-05-09 00:20 11.02085 106.91842 5609 ft 279 kts 188°
2026-05-09 00:20 11.00165 106.91519 5285 ft 278 kts 188°
2026-05-09 00:21 10.98258 106.91197 4977 ft 277 kts 188°
2026-05-09 00:21 10.96364 106.90877 4675 ft 276 kts 188°
2026-05-09 00:21 10.94490 106.90551 4484 ft 269 kts 191°
2026-05-09 00:21 10.92776 106.89880 4357 ft 261 kts 210°
2026-05-09 00:22 10.91377 106.88750 4133 ft 256 kts 227°
2026-05-09 00:22 10.90389 106.87253 3832 ft 255 kts 246°
2026-05-09 00:22 10.89741 106.85577 3537 ft 254 kts 249°
2026-05-09 00:22 10.89115 106.83904 3249 ft 253 kts 249°
2026-05-09 00:23 10.88491 106.82243 2982 ft 249 kts 250°
2026-05-09 00:23 10.87877 106.80617 2825 ft 244 kts 250°
2026-05-09 00:23 10.87287 106.79050 2547 ft 234 kts 250°
2026-05-09 00:23 10.86720 106.77547 2281 ft 222 kts 250°
2026-05-09 00:24 10.86187 106.76135 2026 ft 204 kts 250°
2026-05-09 00:24 10.85709 106.74869 1774 ft 180 kts 251°
2026-05-09 00:24 10.85282 106.73735 1538 ft 166 kts 250°
2026-05-09 00:24 10.84875 106.72655 1319 ft 162 kts 250°
2026-05-09 00:25 10.84473 106.71588 1116 ft 161 kts 249°
2026-05-09 00:25 10.84073 106.70529 913 ft 160 kts 249°
2026-05-09 00:25 10.83679 106.69472 734 ft 160 kts 249°
2026-05-09 00:25 10.83284 106.68417 519 ft 159 kts 248°
2026-05-09 00:26 10.82890 106.67367 301 ft 159 kts 248°
2026-05-09 00:26 10.82492 106.66322 115 ft 158 kts 248°
2026-05-09 00:26 10.82111 106.65311 41 ft 141 kts 245°
2026-05-09 00:26 10.81836 106.64599 37 ft 66 kts 249°
2026-05-09 00:27 10.81734 106.64331 38 ft 37 kts 249°
2026-05-09 00:27 10.81643 106.64090 38 ft 36 kts 249°
2026-05-09 00:27 10.81555 106.63857 35 ft 25 kts 249°
2026-05-09 00:27 10.81489 106.63740 36 ft 18 kts 211°
2026-05-09 00:28 10.81370 106.63716 38 ft 17 kts 188°
2026-05-09 00:28 10.81251 106.63696 38 ft 18 kts 189°
2026-05-09 00:28 10.81148 106.63695 38 ft 14 kts 164°
2026-05-09 00:28 10.81056 106.63727 38 ft 14 kts 160°
2026-05-09 00:29 10.80995 106.63767 39 ft 9 kts 110°
2026-05-09 00:29 10.81008 106.63828 40 ft 9 kts 64°
2026-05-09 00:29 10.81037 106.63892 39 ft 11 kts 65°
2026-05-09 00:29 10.81069 106.63966 39 ft 12 kts 68°
2026-05-09 00:30 10.81095 106.64049 39 ft 13 kts 72°
2026-05-09 00:30 10.81128 106.64135 39 ft 13 kts 69°
2026-05-09 00:30 10.81163 106.64226 39 ft 14 kts 69°
2026-05-09 00:30 10.81200 106.64323 39 ft 15 kts 69°
2026-05-09 00:31 10.81235 106.64416 37 ft 13 kts 69°
2026-05-09 00:31 10.81269 106.64507 40 ft 14 kts 69°
2026-05-09 00:31 10.81304 106.64600 40 ft 15 kts 69°
2026-05-09 00:31 10.81342 106.64699 40 ft 15 kts 68°
2026-05-09 00:32 10.81383 106.64802 40 ft 16 kts 68°
2026-05-09 00:32 10.81422 106.64910 39 ft 17 kts 69°
2026-05-09 00:32 10.81439 106.64998 40 ft 12 kts 115°
2026-05-09 00:32 10.81366 106.65037 40 ft 12 kts 160°
2026-05-09 00:33 10.81282 106.65068 40 ft 13 kts 159°
2026-05-09 00:33 10.81251 106.65116 40 ft 9 kts 78°
2026-05-09 00:33 10.81276 106.65178 40 ft 10 kts 68°
2026-05-09 00:33 10.81303 106.65250 38 ft 11 kts 69°
2026-05-09 00:34 10.81327 106.65315 40 ft 8 kts 77°
2026-05-09 00:34 10.81305 106.65341 40 ft 5 kts 161°
2026-05-09 00:34 10.81275 106.65353 40 ft 0 kts 159°